TimePST,TemperatureF,Dew PointF,Humidity,Sea Level PressureIn,VisibilityMPH,Wind Direction,Wind SpeedMPH,Gust SpeedMPH,PrecipitationIn,Events,Conditions,WindDirDegrees,DateUTC
12:31 AM,27.0,24.1,89,30.35,3.0,Calm,Calm,-,N/A,,Mostly Cloudy,0,2014-01-02 08:31:00
12:38 AM,27.0,24.1,89,30.35,3.0,Calm,Calm,-,N/A,,Mostly Cloudy,0,2014-01-02 08:38:00
12:45 AM,28.0,25.0,88,30.35,1.5,Calm,Calm,-,N/A,,Mostly Cloudy,0,2014-01-02 08:45:00
12:53 AM,27.0,25.0,92,30.38,0.5,Calm,Calm,-,N/A,Fog,Light Freezing Fog,0,2014-01-02 08:53:00
12:58 AM,27.0,25.0,92,30.34,0.2,Calm,Calm,-,N/A,Fog,Light Freezing Fog,0,2014-01-02 08:58:00
1:09 AM,28.0,26.1,92,30.34,1.0,Calm,Calm,-,N/A,,Overcast,0,2014-01-02 09:09:00
1:22 AM,28.0,25.0,88,30.34,2.5,Calm,Calm,-,N/A,,Overcast,0,2014-01-02 09:22:00
1:34 AM,28.0,25.0,88,30.34,0.8,Calm,Calm,-,N/A,,Overcast,0,2014-01-02 09:34:00
1:46 AM,28.0,26.1,92,30.34,1.2,Calm,Calm,-,N/A,,Overcast,0,2014-01-02 09:46:00
1:53 AM,28.0,26.1,92,30.37,1.0,Calm,Calm,-,N/A,,Overcast,0,2014-01-02 09:53:00
2:08 AM,28.0,26.1,92,30.34,0.5,Calm,Calm,-,N/A,Fog,Light Freezing Fog,0,2014-01-02 10:08:00
2:53 AM,28.9,26.1,89,30.37,0.2,Calm,Calm,-,N/A,Fog,Light Freezing Fog,0,2014-01-02 10:53:00
3:06 AM,28.9,27.0,92,30.32,0.2,Calm,Calm,-,N/A,Fog,Light Freezing Fog,0,2014-01-02 11:06:00
3:32 AM,28.9,27.0,92,30.33,0.2,Calm,Calm,-,N/A,Fog,Light Freezing Fog,0,2014-01-02 11:32:00
3:53 AM,28.9,26.1,89,30.35,0.5,Calm,Calm,-,N/A,Fog,Light Freezing Fog,0,2014-01-02 11:53:00
4:31 AM,28.9,27.0,92,30.30,0.2,ENE,3.5,-,N/A,Fog,Light Freezing Fog,60,2014-01-02 12:31:00
4:37 AM,28.9,26.1,89,30.30,0.5,NE,4.6,-,N/A,Fog,Light Freezing Fog,40,2014-01-02 12:37:00
4:50 AM,28.4,26.6,93,30.30,2.0,Calm,Calm,-,N/A,,Overcast,0,2014-01-02 12:50:00
4:51 AM,28.0,26.1,92,30.35,2.0,Calm,Calm,-,N/A,,Overcast,0,2014-01-02 12:51:00
4:58 AM,28.9,27.0,92,30.30,0.8,East,3.5,-,N/A,,Mist,100,2014-01-02 12:58:00
5:14 AM,28.9,27.0,92,30.30,0.2,Calm,Calm,-,N/A,Fog,Light Freezing Fog,0,2014-01-02 13:14:00
5:32 AM,28.9,27.0,92,30.29,0.2,Calm,Calm,-,N/A,Fog,Light Freezing Fog,0,2014-01-02 13:32:00
5:53 AM,28.9,27.0,92,30.32,0.2,Calm,Calm,-,N/A,Fog,Light Freezing Fog,0,2014-01-02 13:53:00
6:12 AM,28.9,27.0,92,30.28,0.2,Calm,Calm,-,N/A,Fog,Light Freezing Fog,0,2014-01-02 14:12:00
6:24 AM,28.9,27.0,92,30.27,0.5,Calm,Calm,-,N/A,Fog,Light Freezing Fog,0,2014-01-02 14:24:00
6:53 AM,28.9,26.1,89,30.31,0.5,WSW,3.5,-,N/A,Fog,Light Freezing Fog,240,2014-01-02 14:53:00
7:11 AM,28.9,26.1,89,30.27,0.2,WSW,3.5,-,N/A,Fog,Light Freezing Fog,250,2014-01-02 15:11:00
7:20 AM,28.0,26.1,92,30.26,0.5,Calm,Calm,-,N/A,Fog,Light Freezing Fog,0,2014-01-02 15:20:00
7:34 AM,28.0,26.1,92,30.26,2.0,WSW,4.6,-,N/A,,Overcast,250,2014-01-02 15:34:00
7:53 AM,28.0,26.1,92,30.30,3.0,Calm,Calm,-,N/A,,Overcast,0,2014-01-02 15:53:00
8:00 AM,28.0,26.1,92,30.25,2.5,Calm,Calm,-,N/A,,Overcast,0,2014-01-02 16:00:00
8:53 AM,28.9,26.1,89,30.29,2.5,Calm,Calm,-,N/A,,Overcast,0,2014-01-02 16:53:00
9:31 AM,30.0,27.0,88,30.24,2.5,Calm,Calm,-,N/A,,Overcast,0,2014-01-02 17:31:00
9:53 AM,30.0,27.0,88,30.28,2.5,Calm,Calm,-,N/A,,Overcast,0,2014-01-02 17:53:00
10:53 AM,30.9,28.0,89,30.26,2.5,Calm,Calm,-,N/A,,Overcast,0,2014-01-02 18:53:00
11:18 AM,30.9,28.0,89,30.20,2.5,Calm,Calm,-,N/A,,Overcast,0,2014-01-02 19:18:00
11:53 AM,32.0,28.9,88,30.21,2.5,Calm,Calm,-,N/A,,Overcast,0,2014-01-02 19:53:00
12:53 PM,32.0,28.9,88,30.17,6.0,Calm,Calm,-,N/A,,Overcast,0,2014-01-02 20:53:00
1:53 PM,32.0,28.9,88,30.12,7.0,East,4.6,-,N/A,,Overcast,100,2014-01-02 21:53:00
2:53 PM,33.1,28.9,85,30.10,7.0,Calm,Calm,-,N/A,,Overcast,0,2014-01-02 22:53:00
3:53 PM,33.1,28.9,85,30.07,8.0,Calm,Calm,-,N/A,,Overcast,0,2014-01-02 23:53:00
4:53 PM,33.1,28.9,85,30.04,8.0,South,4.6,-,N/A,,Overcast,170,2014-01-03 00:53:00
5:53 PM,32.0,28.9,88,30.01,7.0,Calm,Calm,-,N/A,,Overcast,0,2014-01-03 01:53:00
6:53 PM,33.1,28.9,85,29.98,7.0,Calm,Calm,-,N/A,,Overcast,0,2014-01-03 02:53:00
7:53 PM,32.0,28.9,88,29.96,6.0,SW,3.5,-,N/A,,Overcast,230,2014-01-03 03:53:00
8:29 PM,32.0,28.0,85,29.88,4.0,ENE,3.5,-,N/A,,Overcast,60,2014-01-03 04:29:00
8:53 PM,32.0,28.0,85,29.91,4.0,North,3.5,-,N/A,,Overcast,360,2014-01-03 04:53:00
9:53 PM,30.9,28.9,92,29.88,4.0,ESE,4.6,-,N/A,,Overcast,120,2014-01-03 05:53:00
10:04 PM,30.9,28.9,92,29.85,1.8,Calm,Calm,-,N/A,,Overcast,0,2014-01-03 06:04:00
10:32 PM,30.9,28.9,92,29.84,2.5,Calm,Calm,-,N/A,,Overcast,0,2014-01-03 06:32:00
10:53 PM,30.9,28.9,92,29.88,3.0,West,3.5,-,N/A,,Overcast,260,2014-01-03 06:53:00
11:08 PM,30.9,28.9,92,29.83,2.0,Calm,Calm,-,N/A,,Overcast,0,2014-01-03 07:08:00
11:23 PM,30.9,28.0,89,29.85,1.2,WNW,3.5,-,N/A,,Overcast,290,2014-01-03 07:23:00
11:39 PM,30.0,28.0,92,29.87,0.8,SSW,6.9,-,N/A,,Overcast,210,2014-01-03 07:39:00
11:53 PM,30.0,28.0,92,29.90,1.8,SSW,6.9,-,N/A,,Overcast,210,2014-01-03 07:53:00
11:56 PM,30.0,28.0,92,29.87,3.0,SSW,5.8,-,N/A,,Mostly Cloudy,200,2014-01-03 07:56:00